Wheaton NDB, MN

11:50 AM CDT on June 29, 2017 (GMT -0500)
Wheaton Municipal

Weather History for KETH - August, 2014

Change the Weather History Date:

Monday, August 25, 2014

  Actual Average Record
Temperature  
Mean Temperature 58 °F -  
Max Temperature 66 °F 84 °F 99 °F (1949)
Min Temperature 51 °F 59 °F 35 °F (2005)
Degree Days  
Heating Degree Days 6    
Growing Degree Days 8 (Base 50)    
Moisture  
Dew Point 50 °F    
Average Humidity 70    
Maximum Humidity 88    
Minimum Humidity 60    
Precipitation  
Precipitation 0.00 in - - ()
Sea Level Pressure  
Sea Level Pressure 29.99 in    
Wind  
Wind Speed 10 mph (West)    
Max Wind Speed 16 mph    
Max Gust Speed 25 mph    
Visibility 10 miles    
Events      
Averages and records for this station are not official NWS values.
T = Trace of Precipitation, MM = Missing Value Source: NWS Daily Summary

Daily Weather History Graph

Daily Weather History Graph

Search for Another Location

Airport or City:

Trip Planner

Search our weather history database for the weather conditions in past years. The results will help you decide how hot, cold, wet, or windy it might be!

Date:

Astronomy

Aug. 25, 2014 Rise Set
Actual Time 6:38 AM CDT 8:16 PM CDT
Civil Twilight 6:07 AM CDT 8:48 PM CDT
Nautical Twilight 5:28 AM CDT 9:26 PM CDT
Astronomical Twilight 4:47 AM CDT 10:07 PM CDT
Moon 6:47 AM CDT (8/25) 8:03 PM CDT (8/25)
Length of Visible Light 14h 41m
Length of Day
13h 38m
New Moon, 0% of the Moon is Illuminated
Aug 25
New Moon
Sep 2
First Quarter
Sep 8
Full
Sep 15
Last Quarter
Sep 24
New

Hourly Weather History & Observations

Time (CDT) Temp. Dew Point Humidity Pressure Visibility Wind Dir Wind Speed Gust Speed Precip Events Conditions
12:16 AM 59.0 °F 55.4 °F 88% 29.87 in 10.0 mi SW 4.6 mph - N/A   Clear
12:36 AM 59.0 °F 55.4 °F 88% 29.87 in 10.0 mi WSW 3.5 mph - N/A   Clear
12:56 AM 60.8 °F 57.2 °F 88% 29.87 in 10.0 mi WSW 3.5 mph - N/A   Clear
1:16 AM 60.8 °F 53.6 °F 77% 29.88 in 10.0 mi West 5.8 mph - N/A   Clear
1:36 AM 59.0 °F 51.8 °F 77% 29.88 in 10.0 mi WSW 5.8 mph - N/A   Clear
1:56 AM 59.0 °F 51.8 °F 77% 29.88 in 10.0 mi WSW 6.9 mph - N/A   Clear
2:16 AM 60.8 °F 51.8 °F 72% 29.88 in 10.0 mi WSW 11.5 mph 17.3 mph N/A   Clear
2:36 AM 60.8 °F 50.0 °F 68% 29.88 in 10.0 mi WSW 11.5 mph 18.4 mph N/A   Clear
2:56 AM 59.0 °F 50.0 °F 72% 29.89 in 10.0 mi WSW 11.5 mph 16.1 mph N/A   Clear
3:16 AM 59.0 °F 48.2 °F 67% 29.90 in 10.0 mi WSW 13.8 mph - N/A   Clear
3:36 AM 57.2 °F 48.2 °F 72% 29.90 in 10.0 mi West 8.1 mph - N/A   Clear
4:16 AM 55.4 °F 48.2 °F 77% 29.90 in 10.0 mi WSW 11.5 mph - N/A   Clear
4:36 AM 57.2 °F 46.4 °F 67% 29.90 in 10.0 mi WSW 11.5 mph 16.1 mph N/A   Clear
4:56 AM 55.4 °F 46.4 °F 72% 29.90 in 10.0 mi WSW 10.4 mph - N/A   Clear
5:16 AM 55.4 °F 46.4 °F 72% 29.90 in 10.0 mi WSW 11.5 mph - N/A   Clear
5:36 AM 55.4 °F 46.4 °F 72% 29.89 in 10.0 mi WSW 10.4 mph - N/A   Clear
5:56 AM 55.4 °F 46.4 °F 72% 29.90 in 10.0 mi WSW 11.5 mph - N/A   Clear
6:16 AM 55.4 °F 46.4 °F 72% 29.91 in 10.0 mi West 9.2 mph 19.6 mph N/A   Clear
6:36 AM 55.4 °F 46.4 °F 72% 29.93 in 10.0 mi WSW 11.5 mph 16.1 mph N/A   Clear
6:56 AM 55.4 °F 46.4 °F 72% 29.94 in 10.0 mi WSW 11.5 mph 21.9 mph N/A   Clear
7:16 AM 55.4 °F 46.4 °F 72% 29.93 in 10.0 mi West 11.5 mph 20.7 mph N/A   Clear
7:36 AM 55.4 °F 46.4 °F 72% 29.94 in 10.0 mi WSW 13.8 mph 20.7 mph N/A   Clear
7:56 AM 55.4 °F 46.4 °F 72% 29.95 in 10.0 mi WSW 16.1 mph 24.2 mph N/A   Clear
8:16 AM 55.4 °F 46.4 °F 72% 29.95 in 10.0 mi WSW 15.0 mph 20.7 mph N/A   Clear
8:36 AM 57.2 °F 48.2 °F 72% 29.97 in 10.0 mi WSW 15.0 mph - N/A   Clear
8:56 AM 57.2 °F 48.2 °F 72% 29.96 in 10.0 mi West 8.1 mph 19.6 mph N/A   Clear
9:36 AM 59.0 °F 48.2 °F 67% 29.96 in 10.0 mi West 13.8 mph 20.7 mph N/A   Clear
9:56 AM 59.0 °F 48.2 °F 67% 29.96 in 10.0 mi WSW 16.1 mph 24.2 mph N/A   Clear
10:16 AM 60.8 °F 48.2 °F 63% 29.98 in 10.0 mi West 10.4 mph 25.3 mph N/A   Clear
10:36 AM 60.8 °F 50.0 °F 68% 29.99 in 10.0 mi WSW 12.7 mph 20.7 mph N/A   Clear
10:56 AM 62.6 °F 51.8 °F 68% 29.99 in 10.0 mi West 9.2 mph 19.6 mph N/A   Clear
11:16 AM 62.6 °F 51.8 °F 68% 29.99 in 10.0 mi West 12.7 mph 18.4 mph N/A   Clear
11:36 AM 62.6 °F 51.8 °F 68% 30.01 in 10.0 mi West 10.4 mph 21.9 mph N/A   Scattered Clouds
11:56 AM 62.6 °F 51.8 °F 68% 30.02 in 10.0 mi WSW 13.8 mph 21.9 mph N/A   Scattered Clouds
12:16 PM 64.4 °F 51.8 °F 64% 30.01 in 10.0 mi West 12.7 mph 21.9 mph N/A   Scattered Clouds
12:36 PM 64.4 °F 53.6 °F 68% 30.01 in 10.0 mi West 10.4 mph 19.6 mph N/A   Scattered Clouds
12:56 PM 64.4 °F 51.8 °F 64% 30.00 in 10.0 mi West 12.7 mph 23.0 mph N/A   Scattered Clouds
1:16 PM 64.4 °F 51.8 °F 64% 30.01 in 10.0 mi West 13.8 mph 20.7 mph N/A   Scattered Clouds
1:36 PM 64.4 °F 51.8 °F 64% 30.00 in 10.0 mi West 16.1 mph 24.2 mph N/A   Scattered Clouds
1:56 PM 66.2 °F 51.8 °F 60% 30.00 in 10.0 mi West 13.8 mph 21.9 mph N/A   Scattered Clouds
2:16 PM 66.2 °F 53.6 °F 64% 30.00 in 10.0 mi West 13.8 mph 20.7 mph N/A   Scattered Clouds
2:36 PM 64.4 °F 51.8 °F 64% 30.00 in 10.0 mi West 15.0 mph 20.7 mph N/A   Mostly Cloudy
2:56 PM 64.4 °F 51.8 °F 64% 30.01 in 10.0 mi West 11.5 mph - N/A   Scattered Clouds
3:16 PM 66.2 °F 53.6 °F 64% 30.01 in 10.0 mi West 15.0 mph 19.6 mph N/A   Mostly Cloudy
3:36 PM 66.2 °F 53.6 °F 64% 30.01 in 10.0 mi West 10.4 mph 17.3 mph N/A   Scattered Clouds
3:56 PM 66.2 °F 53.6 °F 64% 30.01 in 10.0 mi West 12.7 mph - N/A   Mostly Cloudy
4:16 PM 66.2 °F 51.8 °F 60% 30.02 in 10.0 mi West 12.7 mph - N/A   Mostly Cloudy
4:36 PM 64.4 °F 51.8 °F 64% 30.02 in 10.0 mi West 11.5 mph 17.3 mph N/A   Mostly Cloudy
4:56 PM 66.2 °F 51.8 °F 60% 30.02 in 10.0 mi WNW 15.0 mph 18.4 mph N/A   Mostly Cloudy
5:16 PM 64.4 °F 51.8 °F 64% 30.02 in 10.0 mi West 15.0 mph 18.4 mph N/A   Mostly Cloudy
5:36 PM 62.6 °F 51.8 °F 68% 30.03 in 10.0 mi West 12.7 mph - N/A   Overcast
5:56 PM 62.6 °F 51.8 °F 68% 30.03 in 10.0 mi West 10.4 mph 18.4 mph N/A   Overcast
6:16 PM 62.6 °F 51.8 °F 68% 30.04 in 10.0 mi WNW 10.4 mph 17.3 mph N/A   Overcast
6:36 PM 62.6 °F 51.8 °F 68% 30.04 in 10.0 mi WNW 12.7 mph 18.4 mph N/A   Overcast
6:56 PM 60.8 °F 50.0 °F 68% 30.05 in 10.0 mi WNW 11.5 mph 19.6 mph N/A   Overcast
7:16 PM 60.8 °F 48.2 °F 63% 30.06 in 10.0 mi WNW 12.7 mph - N/A   Overcast
7:36 PM 60.8 °F 48.2 °F 63% 30.07 in 10.0 mi WNW 9.2 mph 18.4 mph N/A   Overcast
7:56 PM 59.0 °F 48.2 °F 67% 30.07 in 10.0 mi WNW 8.1 mph - N/A   Overcast
8:16 PM 59.0 °F 48.2 °F 67% 30.07 in 10.0 mi WNW 13.8 mph - N/A   Overcast
8:36 PM 57.2 °F 46.4 °F 67% 30.08 in 10.0 mi WNW 11.5 mph - N/A   Overcast
8:56 PM 57.2 °F 48.2 °F 72% 30.09 in 10.0 mi WNW 9.2 mph - N/A   Overcast
9:16 PM 57.2 °F 48.2 °F 72% 30.10 in 10.0 mi NW 9.2 mph 16.1 mph N/A   Overcast
9:36 PM 55.4 °F 46.4 °F 72% 30.11 in 10.0 mi NW 8.1 mph - N/A   Mostly Cloudy
10:16 PM 53.6 °F 46.4 °F 77% 30.13 in 10.0 mi West 6.9 mph - N/A   Clear
10:36 PM 53.6 °F 48.2 °F 82% 30.14 in 10.0 mi West 4.6 mph - N/A   Clear
10:56 PM 51.8 °F 48.2 °F 88% 30.14 in 10.0 mi West 5.8 mph - N/A   Scattered Clouds
11:16 PM 53.6 °F 48.2 °F 82% 30.14 in 10.0 mi WNW 5.8 mph - N/A   Overcast
11:36 PM 55.4 °F 46.4 °F 72% 30.15 in 10.0 mi WNW 6.9 mph - N/A   Overcast
11:56 PM 55.4 °F 48.2 °F 77% 30.15 in 10.0 mi WNW 4.6 mph - N/A   Overcast